Voltar ao catálogo

STARLINK-5673

AtivoComunicaçõesVLEO
NORAD 55462·PAYLOAD·🇺🇸 United States

Lançado Feb 2, 2023 de Cape Canaveral Space Force Station

Loading…

Próximas Passagens (próximas 24 horas)

TLE

AtualizadoSource: CelesTrak SupGP

Época: Sep 14, 2026, 22:10 UTC

1 55462C 23015P   26257.92409722 -.00033126  00000+0 -11998-2 0  2573
2 55462  43.0019 339.8156 0001550 273.1700 151.9692 15.27596140    11

Acompanhe STARLINK-5673 em tempo real com AllMySat

Download on the App Store